P/2018 P1 ( Hill )

Japanese version
Home page
Updated on August 14, 2018

---------------------------------------------------------------------

* Profile

Recovery Date August 10, 2018
Magnitude 19.0 mag
Recoverer E. Schwab (Egelsbach, Germany), P. Ruiz (European Space Agency's Optical Ground Station, Tenerife, Spain)

* Orbital Elements

Epoch 2018 Oct. 9.0 TT = JDT 2458400.5
T 2018 Oct. 15.15907 TT                                 MPCW
q   1.9571781            (2000.0)            P               Q
n   0.10712737     Peri.   13.28370     +0.49355692     -0.85970649
a   4.3907202      Node    47.32113     +0.78069911     +0.37128244
e   0.5542467      Incl.   10.30827     +0.38328902     +0.35079068
P   9.20
From 150 observations 2010 Jan. 6-2018 Aug. 12, mean residual 0".6.

* Finding Charts

* Magnitudes Graph

        m1 = 13.5 + 5 log d + 10.0 log r

---------------------------------------------------------------------

The orbital elements are published on M.P.E.C. 2018-P80.
The charts are made with StellaNavigator Ver.10 (AstroArts).
The magnitudes graphs are made with Comet for Windows.

---------------------------------------------------------------------

Copyright(C) Seiichi Yoshida (comet@aerith.net). All rights reserved.